SHT15M EGLL-EGJJ

Flight info

Callsign SHT15M
Flight time 0h 33m
Altitude 22000
Route GASGU N866 SAM N63 LELNA
Aircraft A319/M-SDE3FGHIRWY/LB1

Departure

Time 2026-05-05 11:35
Airport London Heathrow Airport (EGLL)

Arrival

Time 2026-05-05 12:09
Airport Jersey Airport (EGJJ)
Time Latitude Longitude Altitude Speed Heading
2026-05-05 10:55 51.46929 -0.48650 87 ft 0 kts 360°
2026-05-05 11:24 51.46914 -0.48650 91 ft 4 kts
2026-05-05 11:24 51.46888 -0.48656 89 ft 4 kts 31°
2026-05-05 11:24 51.46876 -0.48679 90 ft 0 kts 90°
2026-05-05 11:28 51.46876 -0.48676 90 ft 1 kts 89°
2026-05-05 11:28 51.46877 -0.48646 90 ft 4 kts 91°
2026-05-05 11:29 51.46876 -0.48580 87 ft 7 kts 90°
2026-05-05 11:29 51.46867 -0.48489 87 ft 10 kts 127°
2026-05-05 11:29 51.46820 -0.48472 87 ft 0 kts 180°
2026-05-05 11:30 51.46813 -0.48472 87 ft 2 kts 180°
2026-05-05 11:30 51.46786 -0.48472 87 ft 5 kts 179°
2026-05-05 11:31 51.46742 -0.48472 87 ft 9 kts 180°
2026-05-05 11:31 51.46665 -0.48471 87 ft 13 kts 179°
2026-05-05 11:31 51.46591 -0.48470 88 ft 0 kts 180°
2026-05-05 11:33 51.46572 -0.48470 88 ft 5 kts 180°
2026-05-05 11:33 51.46526 -0.48470 89 ft 8 kts 180°
2026-05-05 11:33 51.46478 -0.48417 89 ft 11 kts 96°
2026-05-05 11:34 51.46478 -0.48376 89 ft 0 kts 90°
2026-05-05 11:34 51.46478 -0.48318 89 ft 24 kts 90°
2026-05-05 11:35 51.46480 -0.47719 86 ft 83 kts 90°
2026-05-05 11:35 51.46485 -0.46502 89 ft 135 kts 89°
2026-05-05 11:35 51.46485 -0.44800 366 ft 157 kts 88°
2026-05-05 11:35 51.46504 -0.43029 1089 ft 160 kts 85°
2026-05-05 11:36 51.46336 -0.41213 1621 ft 180 kts 112°
2026-05-05 11:36 51.45565 -0.39435 1971 ft 208 kts 123°
2026-05-05 11:36 51.44674 -0.37431 2461 ft 233 kts 122°
2026-05-05 11:36 51.43679 -0.35217 3104 ft 255 kts 127°
2026-05-05 11:37 51.42249 -0.33422 3737 ft 267 kts 153°
2026-05-05 11:37 51.40433 -0.32771 4338 ft 272 kts 179°
2026-05-05 11:37 51.38624 -0.33398 4924 ft 277 kts 204°
2026-05-05 11:37 51.37059 -0.35199 5513 ft 279 kts 222°
2026-05-05 11:38 51.35617 -0.37301 5922 ft 281 kts 222°
2026-05-05 11:38 51.34174 -0.39403 6000 ft 280 kts 221°
2026-05-05 11:38 51.32790 -0.41582 6032 ft 278 kts 234°
2026-05-05 11:38 51.31949 -0.44377 6650 ft 281 kts 250°
2026-05-05 11:39 51.31292 -0.47326 7591 ft 283 kts 251°
2026-05-05 11:39 51.30635 -0.50311 8538 ft 286 kts 251°
2026-05-05 11:39 51.29966 -0.53322 9472 ft 289 kts 251°
2026-05-05 11:39 51.29281 -0.56377 10249 ft 299 kts 251°
2026-05-05 11:40 51.28551 -0.59630 10546 ft 323 kts 251°
2026-05-05 11:40 51.27778 -0.63089 11055 ft 336 kts 251°
2026-05-05 11:40 51.26987 -0.66630 11768 ft 342 kts 251°
2026-05-05 11:40 51.26191 -0.70189 12325 ft 346 kts 251°
2026-05-05 11:41 51.25382 -0.73815 12847 ft 348 kts 251°
2026-05-05 11:41 51.24562 -0.77480 13376 ft 352 kts 251°
2026-05-05 11:41 51.23732 -0.81186 13780 ft 355 kts 251°
2026-05-05 11:41 51.22896 -0.84892 14265 ft 357 kts 250°
2026-05-05 11:42 51.21693 -0.88370 14733 ft 361 kts 232°
2026-05-05 11:42 51.20049 -0.91415 15194 ft 363 kts 228°
2026-05-05 11:42 51.18343 -0.94379 15883 ft 365 kts 223°
2026-05-05 11:42 51.16279 -0.96769 16570 ft 368 kts 212°
2026-05-05 11:43 51.14105 -0.98948 17280 ft 370 kts 212°
2026-05-05 11:43 51.11914 -1.01122 17983 ft 372 kts 211°
2026-05-05 11:43 51.09708 -1.03299 18637 ft 375 kts 211°
2026-05-05 11:43 51.07488 -1.05487 19256 ft 377 kts 211°
2026-05-05 11:44 51.05261 -1.07686 19889 ft 379 kts 211°
2026-05-05 11:44 51.03011 -1.09908 20526 ft 381 kts 211°
2026-05-05 11:44 51.00753 -1.12136 21144 ft 383 kts 211°
2026-05-05 11:44 50.98484 -1.14374 21749 ft 386 kts 211°
2026-05-05 11:45 50.96197 -1.16633 22367 ft 388 kts 211°
2026-05-05 11:45 50.93900 -1.18899 22853 ft 390 kts 211°
2026-05-05 11:45 50.91603 -1.21159 22954 ft 385 kts 211°
2026-05-05 11:45 50.89358 -1.23364 22976 ft 376 kts 211°
2026-05-05 11:46 50.87163 -1.25512 22976 ft 374 kts 211°
2026-05-05 11:46 50.84952 -1.27669 22974 ft 374 kts 211°
2026-05-05 11:46 50.82733 -1.29831 22971 ft 374 kts 211°
2026-05-05 11:46 50.80526 -1.31986 22976 ft 373 kts 211°
2026-05-05 11:47 50.78312 -1.34150 22974 ft 374 kts 211°
2026-05-05 11:47 50.76101 -1.36309 22978 ft 374 kts 211°
2026-05-05 11:47 50.73890 -1.38467 22975 ft 374 kts 211°
2026-05-05 11:47 50.71666 -1.40631 22980 ft 375 kts 211°
2026-05-05 11:48 50.67220 -1.44936 22972 ft 375 kts 211°
2026-05-05 11:48 50.64998 -1.47084 22971 ft 375 kts 211°
2026-05-05 11:48 50.62770 -1.49237 22971 ft 375 kts 210°
2026-05-05 11:49 50.60548 -1.51382 22973 ft 375 kts 210°
2026-05-05 11:49 50.58319 -1.53536 22965 ft 375 kts 210°
2026-05-05 11:49 50.56093 -1.55684 22959 ft 376 kts 210°
2026-05-05 11:49 50.53861 -1.57835 22961 ft 376 kts 210°
2026-05-05 11:50 50.51661 -1.59955 22957 ft 376 kts 210°
2026-05-05 11:50 50.49426 -1.62107 22963 ft 376 kts 210°
2026-05-05 11:50 50.47194 -1.64256 22959 ft 376 kts 210°
2026-05-05 11:50 50.44961 -1.66399 22966 ft 376 kts 210°
2026-05-05 11:51 50.42719 -1.68543 22963 ft 377 kts 210°
2026-05-05 11:51 50.40483 -1.70682 22964 ft 377 kts 210°
2026-05-05 11:51 50.38247 -1.72818 22960 ft 377 kts 210°
2026-05-05 11:51 50.36004 -1.74957 22960 ft 377 kts 210°
2026-05-05 11:52 50.33762 -1.77096 22962 ft 377 kts 210°
2026-05-05 11:52 50.31530 -1.79224 22729 ft 375 kts 210°
2026-05-05 11:52 50.29306 -1.81343 22456 ft 373 kts 210°
2026-05-05 11:52 50.27088 -1.83454 22188 ft 372 kts 210°
2026-05-05 11:53 50.24877 -1.85554 21924 ft 371 kts 210°
2026-05-05 11:53 50.22672 -1.87644 21657 ft 370 kts 210°
2026-05-05 11:53 50.20469 -1.89725 21398 ft 369 kts 210°
2026-05-05 11:53 50.18276 -1.91796 21136 ft 368 kts 210°
2026-05-05 11:54 50.16085 -1.93867 20896 ft 367 kts 210°
2026-05-05 11:54 50.13900 -1.95933 20636 ft 367 kts 210°
2026-05-05 11:54 50.11725 -1.97983 20381 ft 366 kts 210°
2026-05-05 11:54 50.09550 -2.00032 20132 ft 365 kts 210°
2026-05-05 11:55 50.07381 -2.02074 19968 ft 364 kts 210°
2026-05-05 11:55 50.05210 -2.04115 19984 ft 364 kts 210°
2026-05-05 11:55 50.03039 -2.06152 19984 ft 365 kts 210°
2026-05-05 11:55 50.00864 -2.08192 19959 ft 364 kts 210°
2026-05-05 11:56 49.98646 -2.10090 19979 ft 364 kts 202°
2026-05-05 11:56 49.96255 -2.11369 19645 ft 365 kts 192°
2026-05-05 11:56 49.93754 -2.12238 18956 ft 370 kts 191°
2026-05-05 11:56 49.91275 -2.13072 18393 ft 370 kts 191°
2026-05-05 11:57 49.88760 -2.13916 17778 ft 369 kts 191°
2026-05-05 11:57 49.86255 -2.14759 17208 ft 367 kts 191°
2026-05-05 11:57 49.83764 -2.15601 16654 ft 365 kts 191°
2026-05-05 11:57 49.81293 -2.16438 16083 ft 363 kts 191°
2026-05-05 11:58 49.78833 -2.17271 15533 ft 361 kts 191°
2026-05-05 11:58 49.76385 -2.18100 14981 ft 360 kts 191°
2026-05-05 11:58 49.73941 -2.18927 14425 ft 359 kts 192°
2026-05-05 11:58 49.71507 -2.19754 13883 ft 358 kts 192°
2026-05-05 11:59 49.69084 -2.20652 13269 ft 357 kts 194°
2026-05-05 11:59 49.66701 -2.21676 12709 ft 355 kts 196°
2026-05-05 11:59 49.64343 -2.22761 12150 ft 353 kts 196°
2026-05-05 11:59 49.62004 -2.23858 11593 ft 351 kts 196°
2026-05-05 12:00 49.59672 -2.24947 11038 ft 349 kts 196°
2026-05-05 12:00 49.57377 -2.25997 10492 ft 339 kts 195°
2026-05-05 12:00 49.55186 -2.26983 10123 ft 323 kts 195°
2026-05-05 12:00 49.53055 -2.27929 9835 ft 308 kts 195°
2026-05-05 12:01 49.51055 -2.28808 9539 ft 300 kts 195°
2026-05-05 12:01 49.49040 -2.29694 9217 ft 303 kts 195°
2026-05-05 12:01 49.47014 -2.30589 8581 ft 301 kts 195°
2026-05-05 12:01 49.45010 -2.31476 8009 ft 298 kts 195°
2026-05-05 12:02 49.43019 -2.32359 7440 ft 296 kts 195°
2026-05-05 12:02 49.41037 -2.33234 6856 ft 296 kts 195°
2026-05-05 12:02 49.39078 -2.34100 6359 ft 292 kts 195°
2026-05-05 12:02 49.37132 -2.34957 5768 ft 290 kts 195°
2026-05-05 12:03 49.35196 -2.35809 5174 ft 289 kts 195°
2026-05-05 12:03 49.33270 -2.36656 4580 ft 288 kts 195°
2026-05-05 12:03 49.31352 -2.37499 3997 ft 286 kts 195°
2026-05-05 12:03 49.29474 -2.38323 3711 ft 272 kts 195°
2026-05-05 12:04 49.27710 -2.39098 3574 ft 255 kts 195°
2026-05-05 12:04 49.26065 -2.39820 3460 ft 237 kts 195°
2026-05-05 12:04 49.24528 -2.40497 3358 ft 225 kts 195°
2026-05-05 12:04 49.23044 -2.41115 3259 ft 217 kts 188°
2026-05-05 12:05 49.21607 -2.40975 3200 ft 200 kts 159°
2026-05-05 12:05 49.20447 -2.39972 3023 ft 188 kts 133°
2026-05-05 12:05 49.19686 -2.38418 2649 ft 177 kts 108°
2026-05-05 12:05 49.19404 -2.36688 2422 ft 162 kts 88°
2026-05-05 12:06 49.19494 -2.35020 2211 ft 156 kts 77°
2026-05-05 12:06 49.19631 -2.33392 2013 ft 154 kts 78°
2026-05-05 12:06 49.19767 -2.31781 1805 ft 152 kts 78°
2026-05-05 12:06 49.19902 -2.30178 1595 ft 153 kts 78°
2026-05-05 12:07 49.20028 -2.28660 1395 ft 134 kts 78°
2026-05-05 12:07 49.20141 -2.27317 1209 ft 126 kts 78°
2026-05-05 12:07 49.20253 -2.26000 1037 ft 124 kts 77°
2026-05-05 12:07 49.20360 -2.24696 839 ft 122 kts 77°
2026-05-05 12:08 49.20469 -2.23408 689 ft 124 kts 76°
2026-05-05 12:08 49.20585 -2.22105 524 ft 124 kts 77°
2026-05-05 12:08 49.20689 -2.20820 326 ft 122 kts 78°
2026-05-05 12:08 49.20795 -2.19597 287 ft 93 kts 83°
2026-05-05 12:09 49.20848 -2.18955 284 ft 49 kts 83°
2026-05-05 12:09 49.20880 -2.18588 282 ft 33 kts 82°
2026-05-05 12:09 49.20867 -2.18392 283 ft 12 kts 140°
2026-05-05 12:09 49.20791 -2.18393 288 ft 12 kts 211°
2026-05-05 12:10 49.20735 -2.18495 284 ft 14 kts 257°
2026-05-05 12:10 49.20722 -2.18652 284 ft 16 kts 263°
2026-05-05 12:10 49.20705 -2.18836 284 ft 19 kts 262°
2026-05-05 12:10 49.20690 -2.19043 289 ft 21 kts 262°
2026-05-05 12:11 49.20692 -2.19271 288 ft 23 kts 284°
2026-05-05 12:11 49.20710 -2.19422 284 ft 14 kts 266°
2026-05-05 12:11 49.20692 -2.19582 284 ft 16 kts 256°
2026-05-05 12:11 49.20623 -2.19701 284 ft 13 kts 239°
2026-05-05 12:12 49.20607 -2.19848 284 ft 15 kts 263°
2026-05-05 12:12 49.20568 -2.19935 284 ft 11 kts 182°
2026-05-05 12:12 49.20483 -2.19923 284 ft 13 kts 175°
2026-05-05 12:12 49.20432 -2.19878 284 ft 10 kts 97°
2026-05-05 12:13 49.20439 -2.19761 284 ft 13 kts 84°
2026-05-05 12:13 49.20433 -2.19613 284 ft 15 kts 105°
2026-05-05 12:13 49.20426 -2.19539 284 ft 7 kts 72°
2026-05-05 12:13 49.20467 -2.19515 284 ft 1 kts 15°
2026-05-05 12:14 49.20472 -2.19512 287 ft 0 kts 15°